FENGYUN 1C DEB, 41830

Orbit data source: Space-Track

FENGYUN 1C DEB, 41830 is space debris in SSO originally from a launch on Mon, 10 May 1999 UTC launched from the Taiyaun Space Center, China (TSC). Fengyun 1C debris stems from the Chinese weather satellite Fengyun-1C, which was intentionally destroyed by a Chinese anti-satellite missile in 2007. This event dramatically increased the amount of space debris, with thousands of trackable fragments posing hazards to satellites and human spaceflight. The Fengyun 1C debris cloud has become a focal point in discussions about space sustainability and the need for international regulations to prevent the creation of new debris.

Loading next visibility...
FENGYUN 1C DEB details
Identifier
41830, 1999-025EYH
Orbit
SSO
Last TLE update1 day ago
Origin
Flag of CNCASC (CN / PRC)
ManufacturerUnknown
MissionSpacecraft
Bus & MotorUnknown
MassUnknown
Launch date (UTC)
1999-05-10 (26 years ago)
Launch vehicleUnknown
Launch site
Taiyaun Space Center, China (TSC)
Object type
Payload
Rocket body
Debris
Shape & HBRUnknown
Radar Cross SectionSmall (<0.1 m²)

Expand to show TLE details & history

TLE from 1 day ago
0 FENGYUN 1C DEB
1 41830U 99025EYH 24360.42667801  .00009864  00000-0  43451-2 0  9996
2 41830  98.7751  67.1304 0058095 159.5029 200.8498 14.22677323422572
Epoch: 2024-12-25T10:14Z
Definitive object data (Epoch: 2024-12-25T10:14:24.98Z)
Latitude-0.00004°
Longitude179.10573°
Altitude858.326 km
Speed7.403 km/s
True Right ascension04h 28m 31s
True Declination0° 00' 00"
Sunlit
Object was in full shadow at TLE epoch
Visualization TLE readout
Latitude6.45814°
Longitude179.16161°
Altitude854.631 km
Speed7.407 km/s
Apparent Right ascension02h 20m 47s
Apparent Declination-19° 33' 59"
Sunlit
Object is in full shadow
Visualization observer readout
Local Sidereal Time10:56:45
Azimuth279.577° WNW
Elevation-42.038°
Doppler factor1
Orbital elements
Apogee altitude855.25 km
Perigee altitude771.691 km
Semi-major axis7,191.608 km
Eccentricity0.0058095
Inclination98.7751°
RAAN67.1304°
Arg. of periapsis159.5029°
True anomaly200.61446°
Mean anomaly200.8498°
Eccentric anomaly200.73197°
Mean motion3.55881 °/min
BSTAR0.0043451
Orbital period101.16 mins
Loading maneuver chart data...
Loading historical data...
Loading historical data...
Loading historical data...
Loading historical data...
Loading historical data...
Loading historical data...
Loading historical data...

FENGYUN 1C DEB Visibility forecast

Observer location: undefined°, undefined

Span
Click to sort rows by Start time (UTC) header in descending order
Start Az.
Max El. time (UTC)
Max El. Az.
Max El.
End time (UTC)
End Az.
9 mins2024-12-26 17:12:22.870Z25.3° NE2024-12-26 17:16:22.870Z81.109° E37.922°2024-12-26 17:21:22.870Z176.238° S
5 mins2024-12-26 18:54:22.870Z325.281° NNW2024-12-26 18:56:22.870Z297.222° NW17.677°2024-12-26 18:59:22.870Z258.294° W
9 mins2024-12-27 04:33:22.870Z161.585° S2024-12-27 04:37:22.870Z136.453° SSE44.201°2024-12-27 04:42:22.870Z348.25° N
|